Inquirer Daily News

Weather

Get conditions and forecasts for any City, State, ZIP code or Country:  
Trenton, NJ
on Wednesday, January 9, 2013

Wednesday
Previous Day Next Day
Daily Summary
 ActualAverageRecord
Temperature
Mean Temperature °F 31°F  
Max Temperature 50°F 39°F 67°F (1937)
Min Temperature 27°F 23°F 4°F (1970)
Degree Days
Heating Degree Days 26 34  
Month to date heating degree days 272 305  
Since 1 July heating degree days 2030 2200  
Cooling Degree Days 0 0  
Month to date cooling degree days 0 0  
Year to date cooling degree days 0 0  
Moisture
Dew Point 32°F   
Average Humidity 77    
Maximum Humidity 92    
Minimum Humidity 61    
Precipitation
Precipitation 0.00 in 0.11 in 1.28 in (1936)
Month to date precipitation 0.01 1.04  
Year to date precipitation 0.01 1.04  
Wind
Wind Speed 5 mph   
Max Wind Speed 16 mph   
Max Gust Speed 23 mph   
Visibility 8 miles   
Events     

Key: T is trace of precipitation, MM is missing value
Source: NWS Daily Summary
Time(EST)TemperatureDew PointHumidity Pressure Visibility Wind DirectionWind SpeedGust SpeedPrecipitationEvents Conditions
12:53 AM 30.0°F 27.0°F 88% 30.37 in 7.0 miles Calm Calm - N/A   Mostly Cloudy
1:53 AM 28.9°F 25.0°F 85% 30.37 in 7.0 miles NNW 3.5 mph - N/A   Partly Cloudy
2:53 AM 30.9°F 27.0°F 85% 30.35 in 7.0 miles North 3.5 mph - N/A   Overcast
3:53 AM 32.0°F 28.0°F 85% 30.34 in 7.0 miles North 3.5 mph - N/A   Overcast
4:53 AM 32.0°F 28.0°F 85% 30.34 in 7.0 miles Calm Calm - N/A   Overcast
5:53 AM 28.9°F 26.1°F 89% 30.35 in 6.0 miles Calm Calm - N/A   Clear
6:53 AM 28.0°F 25.0°F 88% 30.37 in 6.0 miles Calm Calm - N/A   Clear
7:53 AM 28.0°F 26.1°F 92% 30.36 in 4.0 miles Calm Calm - N/A   Clear
8:53 AM 34.0°F 28.9°F 82% 30.37 in 5.0 miles Calm Calm - N/A   Haze
9:53 AM 37.0°F 32.0°F 82% 30.35 in 5.0 miles South 4.6 mph - N/A   Haze
10:53 AM 42.1°F 34.0°F 73% 30.32 in 6.0 miles West 4.6 mph - N/A   Haze
11:53 AM 44.1°F 34.0°F 68% 30.28 in 7.0 miles SSW 3.5 mph - N/A   Partly Cloudy
12:53 PM 46.9°F 35.1°F 63% 30.26 in 8.0 miles WSW 6.9 mph - N/A   Overcast
1:53 PM 48.9°F 36.0°F 61% 30.25 in 9.0 miles WSW 8.1 mph - N/A   Overcast
2:53 PM 48.9°F 37.0°F 64% 30.17 in 9.0 miles SSW 10.4 mph - N/A   Mostly Cloudy
3:53 PM 48.0°F 37.0°F 66% 30.16 in 9.0 miles SW 6.9 mph - N/A   Mostly Cloudy
4:53 PM 48.9°F 37.9°F 66% 30.17 in 10.0 miles West 4.6 mph - N/A   Overcast
5:53 PM 48.9°F 37.0°F 64% 30.19 in 10.0 miles NW 4.6 mph - N/A   Overcast
6:53 PM 46.9°F 36.0°F 66% 30.21 in 10.0 miles WNW 4.6 mph - N/A   Partly Cloudy
7:53 PM 46.0°F 36.0°F 68% 30.22 in 10.0 miles West 5.8 mph - N/A   Clear
9:53 PM 45.0°F 36.0°F 71% 30.24 in 10.0 miles West 6.9 mph - N/A   Clear
10:53 PM 45.0°F 35.1°F 68% 30.24 in 10.0 miles West 10.4 mph - N/A   Clear
11:53 PM 46.9°F 30.0°F 52% 30.26 in 10.0 miles WNW 11.5 mph 20.7 mph N/A   Clear
Astronomy
Sunrise:07:21 AM (EST) Moon Rise:04:58 AM (EST)1/9
Sunset:04:51 PM (EST) Moon Set:02:50 PM (EST)1/9
Moon Phase
Jan. 09 Jan. 11 Jan. 18 Jan. 26 Feb. 03

Copyright © 2014 The Weather Underground, Inc.